Regional Weather Roundup
Issued by NWS

Home | Current Version | Previous Version | Graphics & Text | Print | Product List | Glossary On
Versions: 1 2 3 4 5 6 7 8 9 10 11 12 13 14 15 16 17 18 19 20 21 22 23 24 25 26 27 28
000
ASUS45 KBOU 010507
RWRCO

WEATHER ROUNDUP FOR COLORADO
NATIONAL WEATHER SERVICE DENVER/BOULDER CO
1100 PM MDT WED AUG 31 2016

NOTE: "FAIR" INDICATES FEW OR NO CLOUDS BELOW 12000 FEET WITH NO
SIGNIFICANT WEATHER AND/OR OBSTRUCTIONS TO VISIBILITY.

COZ001>005-013-030-031-010600-
...NORTHWEST COLORADO...

CITY           SKY/WX    TMP DP  RH WIND       PRES   REMARKS
CRAIG          FAIR      53  40  61 SE6       30.21R
HAYDEN         FAIR      64  30  27 E8        30.23F
MEEKER         FAIR      55  38  52 E5        30.23S
MOUNT WERNER   NOT AVBL
STEAMBOAT SPGS FAIR      62  33  33 CALM      30.26S
WALDEN         FAIR      52  37  58 SE7       30.38F
$$

COZ006>008-011-010600-
...WEST CENTRAL VALLEYS...

CITY           SKY/WX    TMP DP  RH WIND       PRES   REMARKS
GRAND JUNCTION FAIR      77  40  26 E12       30.10S
MONTROSE       FAIR      68  46  45 SE13      30.22S
EAGLE          FAIR      63  39  42 SE5       30.27S
RIFLE          FAIR      66  43  43 S6        30.17R
DELTA          FAIR      73  41  31 NE6       30.17R
NUCLA          FAIR     N/A N/A N/A E9        30.26S
$$

COZ017>023-064>068-010600-
...SOUTHWEST COLORADO...

CITY           SKY/WX    TMP DP  RH WIND       PRES   REMARKS
DURANGO        FAIR      60  48  64 N8        30.30S
CORTEZ         FAIR      61  53  75 CALM      30.23R
PAGOSA SPRINGS NOT AVBL
TELLURIDE      CLOUDY    55  47  75 SE5       30.50S
WOLF CREEK PAS CLOUDY    45  41  87 NE12      30.71S
$$

COZ009-010-012-014-032>034-037-058>063-010600-
...CENTRAL COLORADO...

CITY           SKY/WX    TMP DP  RH WIND       PRES   REMARKS
ASPEN          MOCLDY    57  41  55 SW7       30.36R
BUENA VISTA    MOCLDY    55  51  86 S5        30.45S
COPPER MTN     FAIR      52  41  66 S15       30.69S
BERTHOUD PASS  FAIR      39  27  60 SE3       30.71F HAZE
COTTONWOOD PAS MOCLDY    52  46  82 SE6       30.57S
GUNNISON       CLOUDY    63  45  51 N8        30.40R
KREMMLING      FAIR      55  41  58 CALM      30.35R
LEADVILLE      MOCLDY    47  41  80 CALM      30.54S
MONARCH PASS   FOG       43  43 100 NE17      30.79R VSB<1/4
SALIDA         FAIR      62  50  64 E8        30.49S
SUNLIGHT       MOCLDY    59  34  38 E7        30.61S
WILKERSON PASS CLOUDY    46  43  87 S8G17     30.69S
$$

COZ069>075-010600-
...SAN LUIS VALLEY/SANGRE DE CRISTO MOUNTAINS...

CITY           SKY/WX    TMP DP  RH WIND       PRES   REMARKS
ALAMOSA        MOCLDY    60  49  66 SE10      30.39R
LA VETA PASS   FAIR      48  43  81 MISG      30.58S
SAGUACHE       CLOUDY    55  52  88 NW10      30.43S
$$

COZ035-036-038>040-010600-
...NORTHERN COLORADO FRONT RANGE...

CITY           SKY/WX    TMP DP  RH WIND       PRES   REMARKS
DENVER INTL AP FAIR      61  54  77 SE13      30.26F
DMNS CITY PARK   N/A     64  55  72 SW3       30.26S
AURORA         PTCLDY    64  55  71 S16       30.29S
FRONT RANGE AP NOT AVBL
ERIE MUNI ARPT FAIR      64  53  69 CALM      30.26F
BOULDER MUN AP FAIR      64  55  72 CALM      30.27S
CENTENNIAL     FAIR      64  54  69 S12       30.30R
BROOMFIELD     NOT AVBL
FORT COLLINS   FAIR      63  55  77 SE7       30.27R
LONGMONT       FAIR      66  55  67 E3        30.28S
$$

COZ041-046-047-076>085-087-088-010600-
...PIKES PEAK/PALMER DIVIDE AND SOUTHERN FOOTHILLS...

CITY           SKY/WX    TMP DP  RH WIND       PRES   REMARKS
COLO. SPRINGS  CLOUDY    62  54  74 SE5       30.39S
A. F. ACADEMY  CLOUDY    61  54  77 SE9       30.37F
SCHRIEVER AFB  NOT AVBL
ELLICOTT       FAIR     N/A N/A N/A SE12      30.35R
FALCON         CLOUDY    58  55  92 S7        30.42S
FORT CARSON    CLOUDY    62  56  79 SE6       30.35F
LIMON          CLOUDY    58  57  97 SE8       30.33S
MONUMENT HILL  CLOUDY    55  54  94 S18G26    30.41S
TRINIDAD       FAIR      65  50  58 CALM      30.30R
$$

COZ042>045-048>051-090-091-010600-
...NORTHEAST COLORADO...

CITY           SKY/WX    TMP DP  RH WIND       PRES   REMARKS
GREELEY ARPT   CLOUDY    63  55  77 SE10      30.28R
AKRON          CLOUDY    62  59  90 SE15      30.29S
BURLINGTON     FOG       63  61  93 SE8       30.28S VSB 1/2
WRAY           CLOUDY    63  63 100 SE3       30.27S
STERLING       CLOUDY    64  61  88 S5        30.26R
HOLYOKE        MOCLDY    63  61  94 SE5       30.28R
FORT MORGAN    CLOUDY    62  59  91 SE7       30.30R
$$

COZ086-089-092>099-010600-
...SOUTHEAST COLORADO...

CITY           SKY/WX    TMP DP  RH WIND       PRES   REMARKS
PUEBLO         MOCLDY    68  58  70 VRB3      30.29R
LA JUNTA       FAIR      65  59  81 E12       30.25R
LAMAR          CLOUDY    63  59  87 NE5       30.23S
SPRINGFIELD      N/A     64  64 100 SE12      30.26F
$$




USA.gov is the U.S. government's official web portal to all federal, state and local government web resources and services.